Date String (YYYY-MM-DD hh:mm:ss) UTC,Instrument flags,Ambient pressure (hPa),Sample flow (lpm),Bypass flow (lpm),Sample temperature (°C),Ambient temperature (°C),ASC tube jacket temperature (°C),LED temperature (°C),Box temperature (°C),Sample RH (%),Span deviation,Mass concentration (μg/m³),Mass concentration (μg/m³),Mass concentration (μg/m³)
DateTimeUTC,F1_M11,P_M11,Q1_M11,Q2_M11,T1_M11,T2_M11,T3_M11,T4_M11,T5_M11,U1_M11,ZSPAN_M11,X0_M11,X2_M11,X1_M11
2022-07-20 01:00:00,,0826.7,4.99,0.00,29.1,27.5,00.0,37.8,31.0,30.8,0000.0,0019.99,0007.02,0005.19
2022-07-20 01:01:00,,0826.7,5.00,0.00,29.2,27.7,00.0,37.8,31.1,30.7,0000.0,0018.65,0007.08,0005.23
2022-07-20 01:02:00,,0826.7,5.00,0.00,29.2,28.0,00.0,37.9,31.2,30.9,0000.0,0018.09,0007.09,0005.25
2022-07-20 01:03:00,,0826.7,4.99,0.00,29.2,28.0,00.0,37.9,31.3,30.7,0000.0,0017.68,0007.14,0005.27
2022-07-20 01:04:00,,0826.7,5.00,0.00,29.2,27.5,00.0,37.8,31.2,31.0,0000.0,0018.56,0007.18,0005.28
2022-07-20 01:05:00,,0826.7,5.01,0.00,29.2,27.0,00.0,37.8,31.1,30.6,0000.0,0019.24,0007.21,0005.26
2022-07-20 01:06:00,,0826.7,4.99,0.00,29.2,26.9,00.0,37.8,31.0,30.3,0000.0,0018.71,0007.20,0005.24
2022-07-20 01:07:00,,0826.7,5.01,0.00,29.1,27.1,00.0,37.8,31.0,30.9,0000.0,0018.58,0007.14,0005.22
2022-07-20 01:08:00,,0826.7,5.00,0.00,29.1,27.3,00.0,37.8,31.0,30.8,0000.0,0018.19,0007.11,0005.20
2022-07-20 01:09:00,,0826.7,5.00,0.00,29.1,27.5,00.0,37.8,31.1,30.6,0000.0,0017.31,0007.13,0005.19
2022-07-20 01:10:00,,0826.7,5.00,0.00,29.2,27.7,00.0,37.9,31.1,30.8,0000.0,0016.79,0007.13,0005.17
2022-07-20 01:11:00,,0826.8,4.99,0.00,29.2,27.9,00.0,37.9,31.2,30.7,0000.0,0017.64,0007.08,0005.13
2022-07-20 01:12:00,,0826.8,5.01,0.00,29.3,28.0,00.0,37.9,31.3,30.4,0000.0,0017.84,0007.06,0005.12
2022-07-20 01:13:00,,0826.7,4.99,0.00,29.3,27.6,00.0,37.8,31.2,30.9,0000.0,0018.41,0007.05,0005.11
2022-07-20 01:14:00,,0826.8,5.00,0.00,29.2,27.0,00.0,37.8,31.1,31.0,0000.0,0018.55,0007.00,0005.11
2022-07-20 01:15:00,,0826.7,5.01,0.00,29.2,27.0,00.0,37.8,31.1,30.9,0000.0,0017.85,0006.95,0005.11
2022-07-20 01:16:00,,0826.7,5.00,0.00,29.1,27.1,00.0,37.8,31.0,31.2,0000.0,0017.07,0006.90,0005.11
2022-07-20 01:17:00,,0826.7,4.99,0.00,29.1,27.2,00.0,37.8,31.0,31.2,0000.0,0016.71,0006.88,0005.11
2022-07-20 01:18:00,,0826.7,5.00,0.00,29.1,27.4,00.0,37.8,31.1,31.4,0000.0,0017.13,0006.95,0005.12
2022-07-20 01:19:00,,0826.8,4.99,0.00,29.2,27.7,00.0,37.9,31.1,31.7,0000.0,0017.40,0006.99,0005.13
2022-07-20 01:20:00,,0826.8,5.00,0.00,29.2,27.9,00.0,37.9,31.2,31.8,0000.0,0018.40,0007.04,0005.13
2022-07-20 01:21:00,,0826.8,5.01,0.00,29.3,28.0,00.0,37.9,31.3,31.6,0000.0,0017.97,0007.02,0005.14
2022-07-20 01:22:00,,0826.8,5.00,0.00,29.3,27.6,00.0,37.8,31.2,31.2,0000.0,0017.36,0007.01,0005.15
2022-07-20 01:23:00,,0826.8,5.01,0.00,29.2,27.1,00.0,37.8,31.1,31.4,0000.0,0017.75,0006.97,0005.16
2022-07-20 01:24:00,,0826.8,4.98,0.00,29.2,27.0,00.0,37.8,31.1,31.9,0000.0,0018.68,0006.87,0005.13
2022-07-20 01:25:00,,0826.8,5.01,0.00,29.2,27.0,00.0,37.8,31.0,32.0,0000.0,0018.93,0006.86,0005.10
2022-07-20 01:26:00,,0826.8,5.00,0.00,29.1,27.2,00.0,37.8,31.0,31.8,0000.0,0018.57,0006.80,0005.06
2022-07-20 01:27:00,,0826.8,5.00,0.00,29.1,27.4,00.0,37.8,31.0,31.5,0000.0,0019.25,0006.78,0005.02
2022-07-20 01:28:00,,0826.9,4.99,0.00,29.2,27.6,00.0,37.9,31.1,31.5,0000.0,0019.65,0006.76,0004.99
2022-07-20 01:29:00,,0826.8,5.00,0.00,29.2,27.8,00.0,37.9,31.2,31.6,0000.0,0019.35,0006.67,0004.96
2022-07-20 01:30:00,,0826.8,5.00,0.00,29.2,28.0,00.0,37.9,31.3,31.0,0000.0,0018.88,0006.62,0004.94
2022-07-20 01:31:00,,0826.8,5.00,0.00,29.3,28.0,00.0,37.9,31.3,30.3,0000.0,0017.85,0006.58,0004.92
2022-07-20 01:32:00,,0826.7,5.00,0.00,29.3,27.4,00.0,37.8,31.2,31.0,0000.0,0018.02,0006.56,0004.90
2022-07-20 01:33:00,,0826.8,4.99,0.00,29.2,27.0,00.0,37.8,31.1,30.7,0000.0,0018.32,0006.54,0004.87
2022-07-20 01:34:00,,0826.7,5.01,0.00,29.2,27.0,00.0,37.8,31.0,30.0,0000.0,0018.43,0006.49,0004.82
2022-07-20 01:35:00,,0826.7,5.01,0.00,29.2,27.1,00.0,37.8,31.0,30.1,0000.0,0016.84,0006.48,0004.80
2022-07-20 01:36:00,,0826.7,5.00,0.00,29.2,27.3,00.0,37.8,31.0,30.3,0000.0,0015.69,0006.45,0004.80
2022-07-20 01:37:00,,0826.7,5.00,0.00,29.2,27.5,00.0,37.9,31.1,30.1,0000.0,0015.84,0006.39,0004.79
2022-07-20 01:38:00,,0826.7,4.99,0.00,29.2,27.8,00.0,37.9,31.2,30.3,0000.0,0015.70,0006.44,0004.79
2022-07-20 01:39:00,,0826.7,5.01,0.00,29.2,27.7,00.0,37.9,31.2,29.9,0000.0,0015.84,0006.44,0004.77
2022-07-20 01:40:00,,0826.7,5.00,0.00,29.2,27.1,00.0,37.8,31.1,29.8,0000.0,0016.37,0006.46,0004.75
2022-07-20 01:41:00,,0826.7,5.01,0.00,29.2,26.8,00.0,37.8,31.0,29.7,0000.0,0016.49,0006.48,0004.74
2022-07-20 01:42:00,,0826.7,4.99,0.00,29.1,26.8,00.0,37.8,30.9,29.8,0000.0,0017.19,0006.48,0004.72
2022-07-20 01:43:00,,0826.7,5.00,0.00,29.1,26.9,00.0,37.8,30.9,29.9,0000.0,0016.82,0006.46,0004.71
2022-07-20 01:44:00,,0826.6,5.01,0.00,29.1,27.1,00.0,37.8,30.9,30.1,0000.0,0016.14,0006.39,0004.70
2022-07-20 01:45:00,,0826.7,5.00,0.00,29.1,27.4,00.0,37.8,31.0,30.2,0000.0,0015.41,0006.39,0004.69
2022-07-20 01:46:00,,0826.7,5.00,0.00,29.1,27.6,00.0,37.8,31.1,30.2,0000.0,0015.53,0006.44,0004.67
2022-07-20 01:47:00,,0826.7,5.00,0.00,29.2,27.8,00.0,37.9,31.2,30.3,0000.0,0015.68,0006.44,0004.66
2022-07-20 01:48:00,,0826.6,5.00,0.00,29.2,28.0,00.0,37.9,31.2,30.4,0000.0,0015.76,0006.48,0004.66
2022-07-20 01:49:00,,0826.6,5.00,0.00,29.2,27.6,00.0,37.8,31.2,30.5,0000.0,0015.62,0006.47,0004.66
2022-07-20 01:50:00,,0826.5,5.00,0.00,29.2,27.1,00.0,37.8,31.1,30.5,0000.0,0015.70,0006.43,0004.65
2022-07-20 01:51:00,,0826.6,5.00,0.00,29.2,26.9,00.0,37.8,31.0,30.5,0000.0,0015.71,0006.38,0004.65
2022-07-20 01:52:00,,0826.6,5.00,0.00,29.1,27.0,00.0,37.8,30.9,30.6,0000.0,0015.81,0006.29,0004.64
2022-07-20 01:53:00,,0826.5,5.01,0.00,29.1,27.1,00.0,37.8,30.9,30.7,0000.0,0014.99,0006.28,0004.66
2022-07-20 01:54:00,,0826.6,5.00,0.00,29.1,27.3,00.0,37.8,31.0,30.7,0000.0,0014.91,0006.27,0004.66
2022-07-20 01:55:00,,0826.6,5.00,0.00,29.1,27.5,00.0,37.8,31.1,30.7,0000.0,0014.97,0006.29,0004.66
2022-07-20 01:56:00,,0826.7,5.01,0.00,29.1,27.7,00.0,37.8,31.1,30.8,0000.0,0015.15,0006.34,0004.68
2022-07-20 01:57:00,,0826.7,5.00,0.00,29.2,27.9,00.0,37.9,31.2,30.7,0000.0,0015.10,0006.32,0004.70
2022-07-20 01:58:00,,0826.7,5.00,0.00,29.2,27.9,00.0,37.9,31.3,30.7,0000.0,0015.12,0006.34,0004.72
2022-07-20 01:59:00,,0826.7,5.00,0.00,29.2,27.3,00.0,37.8,31.2,30.8,0000.0,0015.00,0006.36,0004.73
